This is the latest recevied weather packets stored in our database for station/object KK7MLS-13. If no packets are shown the sender has not sent any weather packets the latest 10 day(s).
| Time | Temp. | Humidity | Pressure | Rain* | Wind** | Luminosity | Snow |
|---|---|---|---|---|---|---|---|
| 1777855119 | 37.78° C | 21% | 1007.3 hPa | 0 mm | - | 242 W/m² | - |
| 1777854816 | 37.22° C | 21% | 1007.6 hPa | 0 mm | - | 255 W/m² | - |
| 1777854513 | 36.67° C | 22% | 1007.3 hPa | 0 mm | - | 270 W/m² | - |
| 1777854210 | 36.67° C | 23% | 1007.6 hPa | 0 mm | - | 284 W/m² | - |
| 1777853908 | 36.11° C | 22% | 1007.6 hPa | 0 mm | - | 299 W/m² | - |
| 1777853604 | 36.67° C | 19% | 1007.8 hPa | 0 mm | - | 314 W/m² | - |
| 1777853301 | 36.67° C | 22% | 1007.8 hPa | 0 mm | - | 328 W/m² | - |
| 1777852998 | 37.22° C | 21% | 1007.6 hPa | 0 mm | - | 343 W/m² | - |
| 1777852696 | 37.78° C | 19% | 1007.6 hPa | 0 mm | - | 355 W/m² | - |
| 1777852393 | 37.78° C | 19% | 1007.7 hPa | 0 mm | - | 370 W/m² | - |
| 1777852091 | 37.78° C | 21% | 1007.7 hPa | 0 mm | - | 384 W/m² | - |
| 1777851788 | 37.78° C | 17% | 1007.8 hPa | 0 mm | - | 401 W/m² | - |
| 1777851486 | 36.67° C | 20% | 1007.8 hPa | 0 mm | - | 414 W/m² | - |
| 1777851181 | 36.11° C | 19% | 1007.9 hPa | 0 mm | - | 428 W/m² | - |
| 1777850878 | 36.67° C | 18% | 1008 hPa | 0 mm | - | 443 W/m² | - |
| 1777850576 | 36.67° C | 17% | 1008.1 hPa | 0 mm | - | 455 W/m² | - |
| 1777850274 | 36.11° C | 20% | 1008.2 hPa | 0 mm | - | 469 W/m² | - |
| 1777849970 | 36.67° C | 21% | 1008 hPa | 0 mm | - | 482 W/m² | - |
| 1777849666 | 36.11° C | 19% | 1008.1 hPa | 0 mm | - | 494 W/m² | - |
| 1777849364 | 35.56° C | 19% | 1008.3 hPa | 0 mm | - | 507 W/m² | - |
| 1777849061 | 35.56° C | 18% | 1008.2 hPa | 0 mm | - | 513 W/m² | - |
| 1777848761 | 36.11° C | 19% | 1008.2 hPa | 0 mm | - | 527 W/m² | - |
| 1777848458 | 36.11° C | 19% | 1008.3 hPa | 0 mm | - | 539 W/m² | - |
| 1777848156 | 35.56° C | 23% | 1008.5 hPa | 0 mm | - | 550 W/m² | - |
| 1777847854 | 35.56° C | 20% | 1008.7 hPa | 0 mm | - | 559 W/m² | - |
* Rain latest hour (hover to see other rain measurements)
** Current wind speed in m/s (hover to see current wind gust speed)